Regional Weather Roundup
Issued by NWS Jackson, KY

Home | Current Version | Previous Version | Text Only | Print | Product List | Glossary Off
Versions: 1 2 3 4 5 6 7 8 9 10 11 12 13 14 15 16 17 18 19 20 21 22 23 24 25 26 27

000
ASUS43 KJKL 200110
RWRJKL

EAST KENTUCKY HOURLY WEATHER ROUNDUP
NATIONAL WEATHER SERVICE JACKSON KY
900 PM EDT SAT AUG 19 2017

NOTE: "FAIR" INDICATES FEW OR NO CLOUDS BELOW 12,000 FEET WITH
NO SIGNIFICANT WEATHER AND/OR OBSTRUCTIONS TO VISIBILITY.

* THESE REPORTS ARE NOT UNDER NWS QUALITY CONTROL AND MAY NOT
  REPORT WEATHER SUCH AS PRECIPITATION AND FOG.

KYZ079-080-083-085-087-088-110-112-115-119-120-200200
...EASTERN KENTUCKY...

CITY           SKY/WX    TMP DP  RH WIND       PRES   REMARKS
JACKSON        CLEAR     77  67  71 CALM      30.01S
LONDON         CLEAR     78  66  66 CALM      30.01R
SOMERSET*      CLEAR     73  66  78 CALM      30.01R
MONTICELLO*    CLEAR     70  68  93 VRB6      30.02R
WILLIAMSBURG*  CLEAR     75  73  94 CALM      30.01R
MIDDLESBORO*   PTCLDY    75  70  83 CALM      30.02R
HARLAN APT*    CLEAR     72  66  83 CALM      30.04R
PIKE CO APT*     N/A     78  65  66 CALM      30.03R
BIG SANDY APT* CLEAR     76  70  82 CALM      30.01S
MOREHEAD APT*  CLEAR     77  66  69 SW5       30.00R
$$

KYZ035-036-041-042-044-050-067-078-099-200200
...CENTRAL KENTUCKY...

CITY           SKY/WX    TMP DP  RH WIND       PRES   REMARKS
MT STERLING*   CLEAR     77  68  73 SW3       30.00R
FLEMING/MASON* CLEAR     74  67  78 SE3       29.99R
DANVILLE*      CLEAR     75  68  78 CALM      30.00R
LEXINGTON      PTCLDY    78  67  68 S5        29.98S
FRANKFORT      CLEAR     76  69  79 CALM      29.96R
LOUISVILLE     PTCLDY    83  66  56 W6        29.94S
LEBANON*         N/A     77  68  73 S3        29.98R
GLASGOW*       CLEAR     76  68  75 CALM      29.97R
BOWLING GREEN  CLEAR     82  71  69 SW5       29.96R
$$

KYZ091>093-OHZ055-061-077-WVZ005-015-034-035-042-200200
...SOUTHERN OHIO/WEST VIRGINIA...

CITY           SKY/WX    TMP DP  RH WIND       PRES   REMARKS
COVINGTON      PTCLDY    79  68  69 CALM      29.96R
COLUMBUS       PTCLDY    75  66  73 NE3       29.96R
DAYTON         CLEAR     74  61  63 N6        29.99R
WILMINGTON     PTCLDY    71  66  84 NE5       29.98R
HUNTINGTON     CLEAR     75  66  73 CALM      29.97S
CHARLESTON     PTCLDY    76  67  73 S3        29.99R
PINEVILLE*     CLEAR     70  68  93 MISG      30.09R
BECKLEY        CLEAR     70  61  73 CALM      30.08R
BLUEFIELD      CLEAR     71  61  70 W5        30.11R
LOGAN CO APT*    N/A     75  68  78 CALM      30.03R
$$

VAZ002-007-008-TNZ017-027-036-066-071-200200
...SOUTHWEST VIRGINIA/EAST TENNESSEE...

CITY           SKY/WX    TMP DP  RH WIND       PRES   REMARKS
WISE*          CLEAR     72  63  73 CALM      30.12R
JONESVILLE*      N/A     73  70  88 CALM      30.05R
ABINGDON*      CLEAR     72  68  86 N3        30.07R
BRISTOL        CLEAR     75  67  76 CALM      30.04R
MORRISTOWN*    CLEAR     75  68  78 CALM      30.01R
SEVIERVILLE*   CLEAR     77  63  61 CALM      30.00R
KNOXVILLE      CLEAR     82  62  50 CALM      29.99R
LAFOLLETTE*    CLEAR     75  72  88 CALM      30.04R
OAK RIDGE      CLEAR     78  68  71 CALM      30.01R
CROSSVILLE     CLEAR     71  66  84 CALM      30.06R
NASHVILLE      PTCLDY    84  68  58 W5        29.97R
$$

...KEY TO REMARKS...
VSB - VISIBILITY IN MILES
WCI - WIND CHILL INDEX
HX  - HEAT INDEX

$$




USA.gov is the U.S. government's official web portal to all federal, state and local government web resources and services.